Tracking 19832 objects as of 25-Aug-2019
HD Live streaming from Space Station
objects crossing your sky now

COSMOS 2251 DEB

Track COSMOS 2251 DEB now!
10-day predictions


NORAD ID: 36052
Int'l Code: 1993-036AXP
Perigee: 723.7 km
Apogee: 746.5 km
Inclination: 74.0 °
Period: 99.4 minutes
Semi major axis: 7106 km
RCS: 0.0013 m2 (small)
Launch date: June 16, 1993
Source: Commonwealth of Independent States (former USSR) (CIS)
Launch site: PLESETSK MISSILE AND SPACE COMPLEX (PKMTR)

Note: This is SATELLITE DEBRIS
aabbcc
Your satellite tracking list
Your tracking list is empty




NASA's NSSDC Master Catalog

Two Line Element Set (TLE):
1 36052U 93036AXP 19236.93549989 +.00000660 +00000-0 +17991-3 0  9996
2 36052 074.0300 088.1812 0016057 016.6337 343.5346 14.49293105528949
Source of the keplerian elements: AFSPC